Latest Coastal Weather Observations for Gannett Cay

IDQ60701

Issued at 3:32 am EST Thursday 24 August 2017 (issued every 10 minutes, with the page automatically refreshed every 10 minutes)

About coastal observations | Map of coastal stations | Coastal observations for QLD | Marine services | Other Formats
Station Details ID: 200831 Name: GANNET CAY Lat: -21.98 Lon: 152.47 Height: 2.3 m
Data from the previous 72 hours. | See also: Recent months for locations in Queensland
Date/Time
EST
Temp
°C
Wind Pressure Rain since
9am
mm
Weather Cloud Vis
km
Sea
Height
m
Swell
Dir  Spd
kts
Gust
kts
hPa Trend Height
m
Period
s
Dir
24/03:30am 21.8 ENE 10 12 1017.2 - - - - - - - - -
24/03:29am 21.8 ENE 10 11 1017.3 - - - - - - - - -
24/03:00am 21.9 ENE 9 11 1017.4 - - - - - - - - -
24/02:30am 21.8 ENE 10 12 1017.5 - - - - - - - - -
24/02:29am 21.9 ENE 9 - 1017.6 - - - - - - - - -
24/02:00am 21.9 ENE 10 11 1017.5 - - - - - - - - -
24/01:30am 22.0 ENE 9 11 1017.8 - - - - - - - - -
24/01:29am 22.0 ENE 9 - 1017.9 - - - - - - - - -
24/01:00am 21.9 ENE 10 11 1018.1 - - - - - - - - -
24/12:30am 22.0 ENE 9 12 1018.5 - - - - - - - - -
24/12:29am 22.0 ENE 9 - 1018.6 - - - - - - - - -
24/12:00am 22.0 E 9 11 1018.6 - - - - - - - - -
 
Date/Time
EST
Temp
°C
Wind Pressure Rain since
9am
mm
Weather Cloud Vis
km
Sea
Height
m
Swell
Dir  Spd
kts
Gust
kts
hPa Trend Height
m
Period
s
Dir
23/11:30pm 22.0 E 10 13 1018.6 - - - - - - - - -
23/11:29pm 22.0 E 10 - 1018.7 - - - - - - - - -
23/11:00pm 22.1 E 10 12 1018.5 - - - - - - - - -
23/10:30pm 22.0 E 11 12 1018.5 - - - - - - - - -
23/10:29pm 22.0 E 11 - 1018.6 - - - - - - - - -
23/10:00pm 22.1 E 11 13 1018.6 - - - - - - - - -
23/09:30pm 22.1 E 10 12 1018.6 - - - - - - - - -
23/09:29pm 22.2 E 10 - 1018.8 - - - - - - - - -
23/09:00pm 22.1 E 11 15 1018.8 - - - - - - - - -
23/08:30pm 22.0 SE 12 14 1019.0 - - - - - - - - -
23/08:29pm 22.0 SE 12 - 1019.1 - - - - - - - - -
23/08:00pm 22.0 ESE 11 13 1018.9 - - - - - - - - -
23/07:30pm 22.0 ESE 9 11 1018.9 - - - - - - - - -
23/07:29pm 21.9 ESE 9 - 1019.0 - - - - - - - - -
23/07:00pm 22.0 ESE 8 10 1018.6 - - - - - - - - -
23/06:30pm 22.0 E 8 10 1018.3 - - - - - - - - -
23/06:29pm 22.0 ESE 8 - 1018.4 - - - - - - - - -
23/06:00pm 22.1 E 9 11 1018.2 - - - - - - - - -
23/05:30pm 22.1 ESE 8 11 1018.1 - - - - - - - - -
23/05:29pm 22.1 ESE 9 - 1018.2 - - - - - - - - -
23/05:00pm 22.3 ESE 8 10 1018.0 - - - - - - - - -
23/04:30pm 23.0 ESE 6 8 1017.9 - - - - - - - - -
23/04:29pm 23.0 ESE 6 - 1018.0 - - - - - - - - -
23/04:00pm 22.5 E 7 9 1017.6 - - - - - - - - -
23/03:30pm 23.1 ESE 6 8 1017.5 - - - - - - - - -
23/03:29pm 23.1 ESE 7 - 1017.6 - - - - - - - - -
23/03:00pm 23.1 ESE 6 7 1017.4 - - - - - - - - -
23/02:30pm 23.1 ESE 7 9 1017.5 - - - - - - - - -
23/02:29pm 23.1 ESE 7 - 1017.6 - - - - - - - - -
23/02:00pm 22.5 E 6 8 1017.8 - - - - - - - - -
23/01:30pm 22.7 E 7 8 1018.1 - - - - - - - - -
23/01:29pm 22.6 E 7 - 1018.2 - - - - - - - - -
23/01:00pm 23.1 E 6 7 1018.4 - - - - - - - - -
23/12:30pm 23.5 ESE 5 7 1018.7 - - - - - - - - -
23/12:29pm 23.4 ESE 5 - 1018.8 - - - - - - - - -
23/12:00pm 22.6 E 6 7 1019.1 - - - - - - - - -
23/11:30am 23.0 E 6 8 1019.5 - - - - - - - - -
23/11:29am 22.9 E 6 - 1019.6 - - - - - - - - -
23/11:00am 22.7 E 6 8 1020.0 - - - - - - - - -
23/10:30am 22.7 E 7 8 1020.3 - - - - - - - - -
23/10:29am 22.6 E 7 - 1020.4 - - - - - - - - -
23/10:00am 22.5 E 7 8 1020.4 - - - - - - - - -
23/09:30am 22.6 ENE 6 7 1020.5 - - - - - - - - -
23/09:29am 22.7 ENE 6 - 1020.6 - - - - - - - - -
23/09:00am 22.5 ENE 6 8 1020.6 - - - - - - - - -
23/08:30am 22.5 ENE 6 7 1020.5 - - - - - - - - -
23/08:29am 22.5 ENE 6 - 1020.5 - - - - - - - - -
23/08:00am 22.4 ENE 6 8 1020.3 - - - - - - - - -
23/07:30am 22.4 NE 7 9 1019.7 - - - - - - - - -
23/07:29am 22.4 ENE 7 - 1019.8 - - - - - - - - -
23/07:00am 22.4 ENE 7 9 1019.4 - - - - - - - - -
23/06:30am 22.1 NE 8 9 1019.2 - - - - - - - - -
23/06:29am 22.1 NE 8 - 1019.3 - - - - - - - - -
23/06:00am 21.9 NE 9 12 1019.0 - - - - - - - - -
23/05:30am 22.0 NE 9 11 1018.9 - - - - - - - - -
23/05:29am 21.9 NE 10 - 1019.0 - - - - - - - - -
23/05:00am 21.9 NE 7 9 1018.9 - - - - - - - - -
23/04:30am 21.9 NE 8 10 1018.9 - - - - - - - - -
23/04:29am 21.8 NE 8 - 1019.0 - - - - - - - - -
23/04:00am 21.8 NNE 8 10 1018.9 - - - - - - - - -
23/03:30am 21.8 NNE 9 11 1019.0 - - - - - - - - -
23/03:29am 21.8 NNE 9 - 1019.1 - - - - - - - - -
23/03:00am 21.8 NE 8 11 1019.0 - - - - - - - - -
23/02:30am 21.9 NE 9 11 1019.2 - - - - - - - - -
23/02:29am 21.8 NE 9 - 1019.3 - - - - - - - - -
23/02:00am 21.8 NE 9 12 1019.3 - - - - - - - - -
23/01:30am 21.8 ENE 11 13 1019.3 - - - - - - - - -
23/01:29am 21.8 NE 11 - 1019.4 - - - - - - - - -
23/01:00am 21.7 NE 11 13 1019.5 - - - - - - - - -
23/12:30am 21.9 NE 11 13 1019.7 - - - - - - - - -
23/12:29am 21.9 NE 11 - 1019.8 - - - - - - - - -
23/12:00am 21.9 NE 11 14 1019.9 - - - - - - - - -
 
Date/Time
EST
Temp
°C
Wind Pressure Rain since
9am
mm
Weather Cloud Vis
km
Sea
Height
m
Swell
Dir  Spd
kts
Gust
kts
hPa Trend Height
m
Period
s
Dir
22/11:30pm 21.9 ENE 11 13 1019.8 - - - - - - - - -
22/11:29pm 22.0 ENE 11 - 1019.9 - - - - - - - - -
22/11:00pm 21.9 NE 11 13 1019.8 - - - - - - - - -
22/10:30pm 22.0 NE 11 13 1019.9 - - - - - - - - -
22/10:29pm 21.9 NE 11 - 1020.0 - - - - - - - - -
22/10:00pm 22.0 NE 12 14 1019.9 - - - - - - - - -
22/09:30pm 21.9 ENE 11 13 1019.8 - - - - - - - - -
22/09:29pm 21.9 ENE 11 - 1019.9 - - - - - - - - -
22/09:00pm 21.9 ENE 11 13 1019.8 - - - - - - - - -
22/08:30pm 21.9 ENE 10 13 1019.8 - - - - - - - - -
22/08:29pm 21.9 ENE 10 - 1019.9 - - - - - - - - -
22/08:00pm 22.0 ENE 9 11 1019.6 - - - - - - - - -
22/07:30pm 21.9 ENE 9 11 1019.3 - - - - - - - - -
22/07:29pm 21.9 ENE 9 - 1019.4 - - - - - - - - -
22/07:00pm 21.9 ENE 9 11 1019.1 - - - - - - - - -
22/06:30pm 21.8 ENE 9 11 1018.8 - - - - - - - - -
22/06:29pm 21.9 ENE 9 - 1018.9 - - - - - - - - -
22/06:00pm 21.8 ENE 9 11 1018.5 - - - - - - - - -
22/05:30pm 22.1 ENE 9 11 1018.2 - - - - - - - - -
22/05:29pm 21.9 ENE 9 - 1018.3 - - - - - - - - -
22/05:00pm 22.1 ENE 8 10 1018.2 - - - - - - - - -
22/04:30pm 22.2 ENE 7 9 1017.9 - - - - - - - - -
22/04:29pm 22.2 NE 7 - 1018.0 - - - - - - - - -
22/04:00pm 22.2 ENE 7 8 1017.7 - - - - - - - - -
22/03:30pm 22.3 ENE 6 7 1017.6 - - - - - - - - -
22/03:29pm 22.3 ENE 6 - 1017.7 - - - - - - - - -
22/03:00pm 22.4 NE 6 8 1017.5 - - - - - - - - -
22/02:30pm 22.3 ENE 6 7 1017.5 - - - - - - - - -
22/02:29pm 22.4 ENE 6 - 1017.6 - - - - - - - - -
22/02:00pm 22.3 NE 6 8 1017.5 - - - - - - - - -
22/01:30pm 22.4 NNE 7 9 1017.8 - - - - - - - - -
22/01:29pm 22.3 NNE 7 - 1017.9 - - - - - - - - -
22/01:00pm 22.3 NE 7 8 1018.1 - - - - - - - - -
22/12:30pm 22.1 NE 7 8 1018.4 - - - - - - - - -
22/12:29pm 22.1 NE 7 - 1018.5 - - - - - - - - -
22/12:00pm 22.2 NE 6 8 1018.7 - - - - - - - - -
22/11:30am 22.1 NE 7 9 1019.1 - - - - - - - - -
22/11:29am 22.2 NE 7 - 1019.2 - - - - - - - - -
22/11:00am 22.1 ENE 7 9 1019.6 - - - - - - - - -
22/10:30am 22.1 NE 7 9 1019.9 - - - - - - - - -
22/10:29am 22.1 NE 6 - 1020.1 - - - - - - - - -
22/10:00am 22.2 NE 6 8 1020.0 - - - - - - - - -
22/09:30am 22.3 NE 7 8 1020.1 - - - - - - - - -
22/09:29am 22.3 NE 7 - 1020.2 - - - - - - - - -
22/09:00am 22.3 NE 7 9 1020.0 - - - - - - - - -
22/08:30am 22.2 NE 8 9 1019.9 - - - - - - - - -
22/08:29am 22.1 NE 8 - 1020.0 - - - - - - - - -
22/08:00am 22.0 NE 9 11 1019.6 - - - - - - - - -
22/07:30am 22.0 NNE 7 9 1019.4 - - - - - - - - -
22/07:29am 21.8 NNE 7 - 1019.5 - - - - - - - - -
22/07:00am 21.8 NE 8 9 1019.2 - - - - - - - - -
22/06:30am 21.3 NNE 11 13 1018.8 - - - - - - - - -
22/06:29am 21.3 NNE 12 - 1018.9 - - - - - - - - -
22/06:00am 21.5 NE 9 11 1018.3 - - - - - - - - -
22/05:30am 21.2 NE 7 9 1018.0 - - - - - - - - -
22/05:29am 21.3 NE 7 - 1018.1 - - - - - - - - -
22/05:00am 21.2 NE 7 8 1017.9 - - - - - - - - -
22/04:30am 21.0 NE 5 7 1017.8 - - - - - - - - -
22/04:29am 21.0 NE 5 - 1017.9 - - - - - - - - -
22/04:00am 20.9 NNE 7 9 1017.7 - - - - - - - - -
22/03:30am 21.0 NNE 9 10 1017.7 - - - - - - - - -
22/03:29am 20.9 NNE 9 - 1017.8 - - - - - - - - -
22/03:00am 21.0 NNE 6 8 1017.9 - - - - - - - - -
22/02:30am 21.0 NNE 10 11 1018.0 - - - - - - - - -
22/02:29am 21.0 NNE 10 - 1018.0 - - - - - - - - -
22/02:00am 21.0 NNE 10 13 1018.0 - - - - - - - - -
22/01:30am 21.2 NNE 12 14 1018.3 - - - - - - - - -
22/01:29am 21.3 NNE 12 - 1018.5 - - - - - - - - -
22/01:00am 21.3 NE 12 15 1018.7 - - - - - - - - -
22/12:30am 21.3 NNE 12 14 1018.7 - - - - - - - - -
22/12:29am 21.4 NNE 12 - 1018.8 - - - - - - - - -
22/12:00am 21.2 NE 12 15 1019.0 - - - - - - - - -
 
Date/Time
EST
Temp
°C
Wind Pressure Rain since
9am
mm
Weather Cloud Vis
km
Sea
Height
m
Swell
Dir  Spd
kts
Gust
kts
hPa Trend Height
m
Period
s
Dir
21/11:30pm 21.0 NE 10 13 1019.2 - - - - - - - - -
21/11:29pm 21.0 NE 10 - 1019.3 - - - - - - - - -
21/11:00pm 21.0 ENE 10 13 1019.5 - - - - - - - - -
21/10:30pm 20.9 ENE 11 14 1019.5 - - - - - - - - -
21/10:29pm 21.0 ENE 11 - 1019.6 - - - - - - - - -
21/10:00pm 21.1 ENE 10 12 1019.4 - - - - - - - - -
21/09:30pm 20.9 ENE 11 12 1019.3 - - - - - - - - -
21/09:29pm 21.0 ENE 10 - 1019.4 - - - - - - - - -
21/09:00pm 20.6 E 12 13 1019.3 - - - - - - - - -
21/08:30pm 20.7 E 12 14 1019.3 - - - - - - - - -
21/08:29pm 20.8 E 12 - 1019.4 - - - - - - - - -
21/08:00pm 20.7 E 11 14 1019.2 - - - - - - - - -
21/07:30pm 20.9 E 13 15 1018.9 - - - - - - - - -
21/07:29pm 21.0 E 13 - 1019.0 - - - - - - - - -
21/07:00pm 20.8 E 13 15 1018.5 - - - - - - - - -
21/06:30pm 20.6 ESE 12 14 1018.2 - - - - - - - - -
21/06:29pm 20.5 ESE 12 - 1018.2 - - - - - - - - -
21/06:00pm 20.6 ESE 12 15 1017.9 - - - - - - - - -
21/05:30pm 20.0 NW 3 4 1017.8 - - - - - - - - -
21/05:29pm 19.8 NW 3 - 1017.9 - - - - - - - - -
21/05:00pm 19.7 CALM 0 0 1017.7 - - - - - - - - -
21/04:30pm 19.5 CALM 0 0 1017.7 - - - - - - - - -
21/04:29pm 19.5 CALM 0 - 1017.8 - - - - - - - - -
21/04:00pm 18.9 N 5 8 1017.5 - - - - - - - - -
21/03:30pm 19.8 W 5 6 1017.5 - - - - - - - - -
21/03:29pm 19.7 WNW 5 - 1017.6 - - - - - - - - -
21/03:00pm 19.2 NNW 4 5 1017.5 - - - - - - - - -
21/02:30pm 19.5 ENE 7 10 1017.7 - - - - - - - - -
21/02:29pm 19.4 ENE 7 - 1017.8 - - - - - - - - -
21/02:00pm 20.9 NNE 3 4 1017.7 - - - - - - - - -
21/01:30pm 19.8 NE 6 7 1017.8 - - - - - - - - -
21/01:29pm 19.9 NE 6 - 1017.9 - - - - - - - - -
21/01:00pm 19.7 SSE 11 13 1018.2 - - - - - - - - -
21/12:30pm 20.1 ENE 9 12 1018.3 - - - - - - - - -
21/12:29pm 20.1 ENE 9 - 1018.4 - - - - - - - - -
21/12:00pm 19.4 E 20 24 1018.7 - - - - - - - - -
21/11:52am 19.6 E 20 24 1018.6 - - - - - - - - -
21/11:30am 20.6 ESE 17 21 1018.9 - - - - - - - - -
21/11:29am 20.5 ESE 17 - 1019.1 - - - - - - - - -
21/11:00am 21.1 SE 14 17 1019.3 - - - - - - - - -
21/10:30am 20.9 ESE 16 19 1019.7 - - - - - - - - -
21/10:29am 20.8 ESE 15 - 1019.8 - - - - - - - - -
21/10:00am 21.6 ESE 13 16 1019.6 - - - - - - - - -
21/09:30am 21.3 ESE 14 17 1019.7 - - - - - - - - -
21/09:29am 21.3 ESE 14 - 1019.8 - - - - - - - - -
21/09:00am 21.0 SE 14 17 1019.6 - - - - - - - - -
21/08:30am 21.4 ESE 15 17 1019.4 - - - - - - - - -
21/08:29am 21.3 ESE 15 - 1019.5 - - - - - - - - -
21/08:00am 21.2 ESE 14 17 1019.2 - - - - - - - - -
21/07:30am 21.2 ESE 16 19 1018.9 - - - - - - - - -
21/07:29am 21.1 ESE 17 - 1019.0 - - - - - - - - -
21/07:00am 20.9 ESE 18 20 1018.4 - - - - - - - - -
21/06:30am 20.6 SE 17 21 1018.0 - - - - - - - - -
21/06:29am 20.6 SE 16 - 1018.1 - - - - - - - - -
21/06:00am 20.5 ESE 17 19 1017.6 - - - - - - - - -
21/05:30am 20.6 ESE 17 20 1017.4 - - - - - - - - -
21/05:29am 20.6 ESE 17 - 1017.5 - - - - - - - - -
21/05:00am 20.5 SE 18 22 1017.0 - - - - - - - - -
21/04:30am 20.4 SE 18 20 1016.8 - - - - - - - - -
21/04:29am 20.3 SE 18 - 1016.9 - - - - - - - - -
21/04:00am 20.2 ESE 18 21 1016.6 - - - - - - - - -

Other Formats:

Comma delimited format used in spreadsheet applications
http://www.bom.gov.au/fwo/IDQ60701/IDQ60701.94379.axf

JavaScript Object Notation format (JSON) in row-major order
http://www.bom.gov.au/fwo/IDQ60701/IDQ60701.94379.json